Location: Vihti�l�
(61.3833°N, 23.0667°E)
Time: 04:53:30
(UTC+00:00)

Cosmos 1777 Rocket - Pass Details

Date: 29 November 2020
Orbit: 757 x 777 km, 74.0° (Epoch: 22 January)

Event Time Altitude Azimuth Distance (km) Brightness Sun altitude
Exits shadow 04:16:51 32° 253° (WSW) 1,301 4.7 -18.7°
Maximum altitude 04:19:03 54° 314° (NW) 930 4.1 -18.5°
Drops below altitude 10° 04:24:11 10° 32° (NNE) 2,311 6.7 -17.9°
Sets 04:26:38 0° 37° (NE) 3,242 7.6 -17.6°
